Theta_e
323 325 326 327 327 329 332 332 332 333 334 336 335 335 336 334 336 336 338 339 337 335 334 335 333 333 334 334 332 333 334 336 335 334 336 338 336 337 338 338 337 337 338 338 342 339 341 340 341 340 340 339 345 341 339 337 338 337 336 337 334 333 332 335 336 335 332 328 332 333 334 336 335 335 333 335 338 338 338 336 336 334 334 338 340
323 323 324 326 325 327 329 329 331 330 331 333 333 334 334 335 335 336 338 337 336 337 336 336 336 335 334 334 334 334 334 333 332 335 334 337 336 335 334 334 334 333 334 335 339 338 338 339 339 338 343 338 342 339 338 339 337 335 335 333 336 332 331 332 336 332 327 325 325 329 331 333 334 335 330 334 334 335 337 339 338 335 333 333 336
321 322 324 323 324 324 326 329 329 328 329 331 332 333 333 333 334 335 335 334 334 335 336 335 337 337 335 336 334 333 336 336 335 337 337 335 335 334 334 334 334 333 333 332 333 333 335 336 336 338 338 338 337 337 337 336 336 335 334 331 331 332 331 335 335 333 325 326 328 323 320 322 329 331 332 331 332 333 339 335 336 335 333 332 334
319 320 321 322 323 324 325 325 329 329 329 329 330 331 331 332 333 333 333 333 333 334 335 336 338 339 338 338 338 335 333 335 334 336 335 335 333 335 336 336 335 333 332 332 332 332 332 330 332 334 335 337 337 335 334 333 335 336 334 333 332 327 327 329 333 335 331 326 319 321 320 319 316 323 327 331 330 330 334 331 335 334 333 338 332
319 320 321 321 321 323 324 326 326 326 327 327 329 330 330 331 332 333 333 333 333 334 334 336 337 337 338 338 337 336 339 337 335 333 334 335 335 335 335 334 332 332 335 335 333 331 331 334 334 333 333 335 335 335 333 332 334 335 334 333 332 330 327 329 331 335 333 329 323 318 317 316 316 320 321 329 329 327 330 328 333 332 332 334 333
319 319 320 321 321 323 324 325 326 325 326 327 329 330 330 330 331 332 332 333 332 333 334 334 334 334 332 330 329 329 328 329 328 329 330 331 332 336 338 336 335 333 332 334 334 334 332 333 333 332 333 334 336 336 334 334 333 332 332 332 332 332 329 327 324 329 333 333 331 328 324 319 318 321 320 316 329 328 328 328 329 330 333 330 330
318 319 319 319 321 321 322 324 325 325 326 328 328 330 329 330 331 331 331 332 332 332 333 333 332 332 331 329 329 330 328 330 333 335 333 332 333 335 337 338 335 334 334 333 334 333 334 332 333 333 332 331 334 335 335 334 331 330 330 331 332 332 332 327 326 326 328 333 331 329 327 326 323 320 317 319 315 326 328 328 326 327 328 329 328
316 317 318 320 320 321 321 322 324 325 327 327 329 329 329 330 330 331 331 331 332 332 330 331 330 330 330 329 329 329 329 330 332 333 335 334 332 333 335 336 337 337 335 334 334 332 332 334 333 333 332 331 331 331 334 336 334 333 333 333 334 335 332 328 327 327 324 325 330 330 328 325 321 319 318 315 315 310 318 326 326 327 327 330 329
317 316 317 319 319 321 322 322 324 326 326 328 328 328 330 329 329 329 330 330 330 331 330 330 330 329 329 328 327 328 328 329 330 332 333 335 333 334 334 334 336 338 338 336 333 333 335 335 334 334 334 333 331 330 331 331 333 329 331 331 331 332 332 330 327 325 325 323 325 328 325 324 321 321 318 317 315 312 312 315 320 326 328 328 328
316 316 317 318 320 320 322 322 323 325 328 328 328 328 327 328 327 326 327 327 328 329 329 329 329 329 327 327 326 325 326 327 327 328 329 332 329 330 333 334 332 334 334 336 335 331 333 333 333 331 332 332 333 330 330 331 333 332 330 331 331 332 333 331 329 328 327 326 325 326 325 326 321 318 320 318 316 313 310 310 314 319 319 324 329
315 315 316 318 319 321 320 320 322 325 327 326 328 325 326 326 327 325 326 327 327 327 328 328 327 327 326 326 326 324 325 325 324 325 325 326 325 326 328 329 333 333 336 336 336 335 335 335 335 334 334 334 331 331 331 330 330 332 333 334 333 332 331 331 330 329 326 326 326 324 325 324 323 321 319 321 321 319 316 315 317 318 321 320 324
314 314 314 316 317 318 319 319 320 321 323 324 325 325 325 324 325 324 325 326 326 326 327 326 326 325 326 325 324 324 325 322 322 322 322 322 324 324 326 327 328 329 334 333 334 332 333 336 334 333 334 333 332 331 332 332 332 333 333 333 332 333 333 332 331 328 327 325 325 325 325 326 324 324 322 325 324 323 322 318 316 318 317 320 324
313 313 313 313 313 316 317 318 319 319 321 322 323 325 325 324 324 323 323 325 324 325 325 325 325 325 324 324 323 324 324 323 322 321 322 322 323 323 324 324 326 326 327 327 328 329 330 330 331 332 333 333 333 332 331 332 333 333 332 332 332 330 330 329 328 328 328 326 324 326 326 323 323 322 323 322 324 325 323 317 317 316 315 317 321
312 312 313 312 313 313 315 317 316 318 320 323 322 322 324 323 323 322 322 324 324 324 324 323 324 325 325 324 323 323 322 324 323 321 321 322 323 323 323 324 324 325 325 326 326 326 328 329 329 330 329 329 330 332 333 331 330 328 329 331 330 330 328 328 328 327 327 328 328 325 325 323 322 325 324 325 322 322 320 318 317 317 315 315 319
312 312 311 312 315 316 316 317 318 318 320 322 322 321 320 320 321 321 321 322 323 322 322 323 321 324 324 322 323 323 321 324 324 325 325 322 322 322 323 324 324 324 324 326 327 326 327 327 328 328 328 329 329 331 330 329 330 330 330 329 329 330 330 327 325 326 325 324 326 326 325 327 326 324 322 323 323 323 322 320 318 314 314 315 316
311 311 312 313 315 316 319 318 317 317 320 319 318 320 320 320 319 321 320 322 322 322 320 323 321 324 325 323 323 323 323 323 323 324 326 326 323 323 323 324 324 323 324 324 325 325 325 325 325 325 327 328 328 329 329 329 329 330 327 325 326 330 328 327 326 326 326 325 324 326 325 324 325 326 324 324 323 324 323 324 323 319 313 311 315
310 310 311 313 312 315 314 316 318 317 315 317 319 320 319 320 317 320 320 321 321 321 320 322 321 323 323 322 322 322 321 321 321 322 324 324 324 324 324 323 324 324 322 322 322 323 324 325 324 325 326 327 328 329 329 329 329 328 326 324 324 327 328 328 328 326 324 326 325 324 325 325 324 324 325 325 326 322 322 323 323 320 320 313 310
309 311 311 311 312 312 312 314 315 315 318 318 318 322 320 322 318 317 318 320 318 319 320 322 321 320 321 320 321 321 320 320 320 321 322 321 320 322 323 323 322 322 321 322 322 320 321 323 322 323 325 325 326 328 328 328 329 328 327 325 326 325 325 326 328 328 327 325 324 324 325 324 325 323 324 324 325 325 323 323 322 322 320 314 314
310 311 311 311 313 314 315 315 314 318 319 315 313 319 316 321 316 317 318 321 320 320 320 322 321 319 318 318 319 319 319 319 320 321 320 318 318 318 319 321 322 321 320 322 321 319 319 320 319 318 320 321 323 324 326 327 324 322 325 326 327 327 326 325 327 325 324 326 325 323 323 323 325 324 324 325 323 325 324 322 321 321 320 319 315
309 310 311 311 310 312 314 316 312 313 312 314 317 317 318 319 318 319 322 321 321 320 321 319 318 317 317 318 319 318 319 318 319 319 317 317 317 317 316 318 319 319 319 320 320 318 318 319 316 315 316 318 320 322 324 327 326 323 324 324 326 327 323 322 324 327 327 323 322 322 324 323 324 322 322 324 323 323 323 320 318 320 320 321 319
310 310 310 311 314 314 312 315 313 313 313 317 316 316 319 320 320 319 320 319 318 318 320 323 318 317 316 317 318 319 320 319 318 319 318 318 317 318 319 319 317 318 318 318 317 316 316 318 315 315 314 315 317 319 322 324 325 324 323 324 325 325 323 322 322 324 325 325 325 324 325 325 324 321 321 323 322 320 321 321 320 319 318 319 318
311 311 313 313 313 314 312 311 312 313 313 312 315 317 313 317 319 320 320 316 316 317 315 316 316 316 316 316 318 318 318 318 319 318 318 316 315 317 320 317 317 317 318 316 315 315 315 315 314 314 314 314 314 316 318 324 324 323 322 322 324 324 323 321 321 320 322 325 323 322 322 323 324 323 321 321 320 320 318 319 317 317 317 318 318
311 313 314 315 314 314 312 312 312 312 316 316 319 317 318 322 321 320 317 316 316 318 316 315 315 315 316 316 317 316 316 318 317 317 316 316 317 317 316 316 316 316 315 315 315 313 313 313 313 314 314 313 313 313 317 322 320 321 322 322 322 322 321 320 319 320 321 321 322 322 321 321 322 322 321 321 320 319 318 317 316 316 316 316 317
311 312 316 315 316 318 316 313 312 310 315 318 317 315 316 317 318 317 316 317 317 316 314 314 314 315 316 316 315 316 317 315 314 315 316 317 315 315 316 315 314 315 313 314 314 313 312 312 312 312 312 312 312 312 313 316 319 321 320 318 317 320 320 319 319 320 320 320 320 321 321 320 321 320 320 321 321 319 319 317 316 315 316 317 316
310 312 313 315 313 312 311 311 311 312 312 316 314 314 314 319 318 317 317 319 317 315 314 313 314 314 315 314 315 315 315 315 315 316 316 316 315 315 316 313 313 312 312 313 312 312 312 311 312 311 311 310 311 312 313 316 317 318 318 317 317 318 319 319 320 320 320 319 319 319 320 321 319 318 317 319 319 319 318 317 316 315 313 317 317
311 311 314 315 313 312 313 314 312 313 312 313 314 314 314 315 317 320 318 318 316 316 313 313 313 313 312 313 314 315 314 314 315 315 316 316 316 315 313 313 311 311 311 311 311 311 312 311 310 310 310 311 311 312 315 317 316 317 317 317 317 317 317 319 320 319 319 319 319 320 321 320 319 318 317 319 319 317 317 318 317 316 315 316 318
312 313 316 316 316 317 313 315 315 316 317 315 315 313 313 315 318 318 315 317 318 316 313 313 314 313 313 311 313 315 315 314 315 315 314 313 313 314 312 311 311 311 310 310 310 310 311 311 310 311 311 311 312 313 319 317 317 317 317 316 317 317 317 318 318 319 320 320 320 321 321 321 319 318 318 319 318 317 318 319 318 317 318 315 315
312 313 312 313 316 315 317 317 317 315 320 317 315 315 315 315 316 315 314 317 316 313 312 312 313 313 312 312 314 315 313 313 314 313 313 313 312 311 312 312 312 311 310 310 310 310 310 311 310 311 311 312 312 313 319 318 318 317 317 316 316 316 316 317 318 318 318 319 320 321 320 320 319 318 317 319 319 317 318 316 316 317 317 317 313
310 311 314 315 314 316 319 319 320 318 318 318 314 313 316 315 314 313 314 314 313 313 312 311 311 311 311 312 313 314 314 312 312 312 312 311 311 311 311 310 310 310 312 311 311 311 310 310 311 312 311 312 313 317 318 317 316 316 316 315 315 315 315 316 317 316 317 318 318 319 319 319 319 320 320 320 321 320 318 315 315 317 315 317 316
309 310 312 314 314 317 317 319 319 316 316 313 315 313 312 313 313 313 312 312 312 315 313 311 310 310 310 310 311 311 310 311 311 310 310 311 310 310 310 310 310 311 311 311 311 311 310 310 310 310 311 313 314 319 318 311 309 312 314 315 315 315 315 315 315 315 316 317 317 318 318 320 319 319 320 313 311 315 319 319 315 317 317 314 314
308 313 315 316 317 315 317 317 318 317 316 314 317 315 313 313 313 312 311 312 310 312 311 311 310 310 309 309 309 309 309 309 310 310 310 309 309 310 310 310 311 311 311 311 311 310 310 311 311 310 311 313 314 318 307 295 297 300 309 313 313 313 314 314 315 315 314 315 315 315 316 317 317 317 313 308 307 308 308 308 309 311 315 315 315
308 309 310 313 313 315 314 315 316 315 315 313 316 313 312 311 312 312 312 312 312 312 311 310 309 309 309 308 309 308 308 308 308 307 308 308 309 308 308 309 309 309 310 311 311 310 311 311 311 311 311 312 313 311 296 298 298 297 302 309 312 313 313 314 315 315 314 314 314 313 313 316 316 316 313 310 308 305 302 302 302 302 301 301 304
309 309 309 310 310 312 314 314 313 312 312 313 313 313 315 313 312 313 311 312 310 310 309 308 309 308 308 309 307 307 307 307 307 308 309 308 308 307 308 308 308 310 310 310 310 310 310 310 310 309 310 311 312 305 298 298 298 297 296 303 311 312 313 313 314 314 314 314 314 313 311 312 314 315 315 313 310 308 306 305 306 305 303 298 294
312 312 310 311 313 315 316 316 317 315 313 313 315 314 315 317 314 312 310 310 308 308 309 308 308 308 308 307 307 307 306 307 307 307 308 307 307 307 308 308 309 309 309 309 309 309 310 310 310 310 310 310 310 310 297 298 297 295 295 296 310 312 313 313 314 314 314 314 314 314 313 312 312 314 313 314 312 309 308 308 308 308 308 307 299
313 315 313 315 317 318 319 316 314 313 317 316 313 314 314 312 312 310 310 309 308 308 308 308 308 308 308 307 306 306 306 306 307 307 307 306 307 307 307 308 308 308 308 308 308 308 309 309 309 309 309 309 311 303 296 296 295 295 296 300 312 313 313 314 314 315 315 314 314 314 314 313 313 312 313 313 312 309 307 306 306 308 307 308 308
310 312 316 316 312 315 316 317 316 314 312 312 312 314 312 311 311 310 309 308 308 308 307 308 307 307 307 307 306 306 306 306 306 306 305 305 306 306 306 307 308 308 308 308 308 308 308 308 308 309 308 308 309 298 294 294 295 294 298 310 310 310 310 312 313 315 315 315 315 314 313 313 313 313 312 305 309 310 307 306 305 305 305 306 308
312 310 310 316 316 315 318 317 318 315 313 315 314 313 313 311 310 309 308 307 308 307 306 307 307 307 307 306 306 306 306 305 305 305 304 305 305 306 306 307 306 306 306 307 307 307 308 307 308 308 308 308 308 298 294 294 295 294 301 309 309 309 309 310 311 314 315 316 316 315 313 312 312 313 308 300 301 308 308 306 305 305 305 304 305
309 312 312 318 319 317 315 316 317 316 317 319 318 317 312 311 310 309 308 307 306 306 306 306 306 306 307 306 306 305 305 305 304 304 304 305 306 306 306 307 306 305 305 306 307 306 307 307 307 307 308 308 309 302 294 295 294 294 301 307 308 308 308 309 310 313 312 313 316 316 316 314 312 312 304 299 299 306 307 306 305 304 304 304 305
310 311 311 311 315 314 313 314 314 313 314 319 317 313 310 308 309 308 307 306 307 306 306 306 306 306 307 307 307 306 306 305 304 304 305 305 305 306 306 307 306 306 306 306 306 305 306 306 307 307 310 310 310 308 294 294 294 293 300 307 307 307 307 308 309 310 312 313 315 315 315 313 313 310 302 298 298 305 308 307 306 305 304 303 305
310 312 312 312 312 311 311 313 313 316 317 316 314 310 311 310 308 307 307 307 307 308 306 307 307 307 308 307 307 307 308 306 305 305 306 305 306 305 306 305 306 305 304 305 305 305 305 305 306 307 308 312 311 310 302 293 294 295 294 303 307 306 305 305 306 307 308 310 312 312 312 303 298 297 298 296 297 299 308 308 307 305 304 304 308
311 313 313 312 311 311 309 309 311 313 312 312 311 312 310 309 311 309 308 309 309 309 308 307 307 307 306 306 307 307 308 308 306 306 306 306 305 304 305 305 305 305 305 305 305 305 305 305 306 306 308 309 310 308 307 293 294 295 293 296 306 305 305 305 305 305 307 308 309 311 311 307 299 298 296 294 295 296 302 309 308 306 307 307 306
313 315 313 314 312 314 313 311 313 312 311 311 310 310 309 308 309 309 311 310 309 308 309 307 307 306 307 307 308 310 310 309 308 308 307 306 306 305 305 305 304 304 304 304 304 304 304 304 305 306 307 308 311 309 310 303 296 293 294 292 301 305 304 303 304 305 306 307 308 309 310 306 298 297 294 295 294 295 296 307 307 297 296 299 308
315 315 313 311 312 312 311 313 311 313 311 311 312 311 310 311 309 311 312 311 310 311 308 307 307 307 309 309 309 310 309 309 308 308 306 305 305 305 305 304 304 304 304 302 302 303 304 302 303 304 306 307 309 310 303 306 300 296 294 293 293 296 295 301 304 304 305 306 308 307 308 302 294 294 294 293 294 294 301 301 293 294 294 296 302
314 316 315 312 313 312 313 314 313 313 313 312 313 310 310 311 311 312 312 312 311 310 309 308 310 309 309 311 308 308 309 309 308 307 306 305 305 305 304 304 304 304 302 300 301 302 301 300 300 301 303 305 307 310 307 302 303 298 295 294 293 292 291 298 301 303 306 307 305 303 301 294 293 294 293 292 293 295 301 293 293 293 295 299 302
315 315 318 314 312 315 314 313 314 315 315 312 313 312 311 311 312 313 311 310 310 309 310 309 308 308 312 310 310 308 308 308 307 307 306 305 304 304 303 303 303 302 301 302 301 300 299 297 297 298 300 303 304 307 309 304 298 298 296 295 294 293 294 291 298 305 306 304 297 292 293 293 292 293 292 293 293 294 293 292 293 294 303 302 301
315 315 317 317 316 318 315 313 314 315 315 315 314 313 312 313 313 312 312 310 310 310 309 309 308 309 310 309 308 308 307 307 308 307 306 305 304 304 303 303 302 301 300 302 299 298 298 297 297 297 298 301 303 304 306 306 303 302 300 297 296 295 298 297 297 299 296 294 292 292 294 295 294 294 297 298 298 297 292 291 293 300 303 301 301
316 320 314 315 315 314 313 312 312 316 316 314 315 315 315 313 313 313 312 311 310 309 309 309 309 308 310 311 308 306 306 306 306 306 305 305 304 304 303 303 301 300 300 299 299 298 297 296 296 296 298 300 301 302 305 304 303 303 302 302 302 302 300 298 300 302 301 301 301 299 298 294 294 293 296 297 297 294 296 298 299 300 302 301 301
319 317 319 318 318 315 314 314 311 312 312 313 314 313 313 314 312 312 311 311 310 310 309 308 308 308 308 307 307 302 304 305 305 305 305 305 305 305 303 302 301 301 300 299 298 298 297 297 296 296 297 298 299 300 303 301 301 300 300 301 301 301 300 299 298 299 298 299 301 297 296 302 301 299 299 300 300 299 298 297 299 300 301 302 302
320 317 318 316 317 316 314 314 313 314 314 313 313 313 313 314 314 313 312 311 310 307 309 310 309 308 308 308 308 306 306 305 305 305 305 306 305 305 304 303 305 305 305 300 299 299 299 299 297 296 297 298 299 300 301 293 296 291 293 297 298 298 297 297 297 293 295 298 301 303 302 301 301 300 299 299 299 299 298 299 300 300 301 302 300
321 319 316 316 317 317 315 313 312 314 314 313 313 312 313 313 312 312 312 311 311 311 311 309 308 308 308 308 307 306 305 305 305 307 304 306 300 299 300 302 302 300 296 295 294 299 300 299 298 299 301 300 300 302 291 290 291 290 290 290 291 291 290 291 291 289 291 296 299 302 302 301 300 300 299 299 299 299 299 298 300 297 300 300 299
317 316 316 316 316 315 315 313 313 314 313 313 314 313 312 311 311 312 313 311 309 308 307 307 308 308 306 306 305 306 307 306 306 307 304 304 304 306 297 296 294 295 295 293 291 292 293 293 297 298 299 297 296 291 290 290 290 290 290 290 291 291 291 290 288 290 296 299 300 300 302 302 300 300 299 299 299 299 298 298 298 299 300 299 296
Wind_Speed
9 8 9 10 9 6 5 4 6 7 6 6 6 6 7 7 7 8 6 6 7 7 7 7 7 7 5 5 5 4 2 1 2 2 2 1 2 5 6 6 7 6 5 3 2 3 2 3 3 2 3 3 1 2 2 3 3 3 3 2 3 3 3 2 2 2 3 3 3 3 3 3 4 9 7 4 4 3 2 4 7 8 7 6 4
8 8 9 7 8 8 6 5 6 8 7 7 7 8 8 8 8 7 7 7 7 6 4 5 4 4 4 5 5 4 4 4 5 3 4 4 5 5 5 6 7 8 8 10 6 3 3 2 2 3 2 3 2 2 3 3 3 4 3 3 2 4 2 3 1 1 3 3 2 1 3 4 5 4 6 7 6 5 5 5 3 3 4 4 5
7 8 7 7 8 8 7 6 6 7 7 8 8 8 8 8 7 7 7 7 6 6 5 5 4 4 4 3 4 3 2 2 1 2 3 6 5 5 4 5 4 2 3 3 5 9 9 7 5 3 3 3 3 3 3 3 3 4 4 3 4 3 3 2 2 1 3 4 3 2 3 3 3 2 5 6 7 5 5 5 5 4 5 3 7
8 7 7 7 8 6 6 6 5 5 6 7 7 7 6 7 7 7 7 7 6 7 7 6 4 3 3 4 2 0 1 2 2 3 5 4 6 4 3 2 3 2 3 1 4 3 4 6 9 7 5 4 3 3 4 4 3 3 4 4 3 4 3 3 4 3 2 2 3 1 3 3 2 3 4 3 4 5 6 6 5 5 3 1 2
8 8 7 7 7 7 7 6 6 6 7 7 6 6 6 8 7 7 7 7 7 8 8 6 5 5 4 3 3 3 1 3 4 5 5 4 4 4 4 3 3 4 4 3 2 1 2 3 2 5 5 5 4 4 5 5 4 3 3 4 4 4 5 3 3 1 3 4 2 3 3 2 0 3 3 2 3 2 7 6 3 4 3 4 5
8 8 8 7 7 6 7 7 6 7 7 6 6 7 7 7 8 8 7 7 7 8 8 6 6 6 7 7 7 6 6 6 6 5 5 6 6 4 4 4 2 1 2 1 2 2 2 1 1 2 3 5 3 3 4 5 6 4 3 4 4 4 3 4 4 5 3 1 2 3 2 2 2 3 3 1 2 3 1 6 7 8 6 6 5
8 9 8 8 7 8 7 7 7 7 7 6 6 6 8 7 7 7 6 6 6 7 8 7 7 6 7 6 6 6 6 5 4 3 2 3 3 3 3 1 3 1 2 3 1 1 2 1 1 1 1 3 4 4 3 3 5 6 5 4 3 3 3 3 4 4 5 3 4 4 4 4 3 2 2 2 3 0 1 2 2 1 2 1 2
8 8 8 7 7 7 8 7 6 6 5 6 5 5 6 7 7 6 5 6 6 6 7 7 6 6 7 7 6 6 6 6 5 4 2 2 4 4 4 3 3 2 2 2 2 2 1 3 3 4 3 2 4 5 3 3 4 4 5 6 5 3 4 5 4 4 5 4 3 2 3 4 5 5 5 4 3 3 2 3 3 2 3 2 1
8 7 9 8 7 7 7 7 7 7 6 5 4 5 5 6 7 6 6 5 6 7 6 6 6 6 6 6 6 6 6 5 5 5 4 3 3 3 3 4 4 3 1 1 2 3 3 3 3 4 4 3 2 3 3 3 1 3 5 6 6 4 3 3 4 5 5 5 6 2 3 4 4 4 6 4 3 3 4 4 3 2 4 4 3
10 11 7 7 6 7 7 7 7 5 4 5 5 5 6 6 7 8 8 6 7 8 8 8 8 7 6 6 7 6 7 6 6 6 5 4 5 5 3 3 3 3 3 2 0 2 2 2 3 4 5 5 5 4 4 4 3 2 4 5 6 5 3 4 4 4 4 6 6 6 3 2 3 4 3 3 5 5 4 3 3 5 4 3 5
11 9 10 8 7 7 7 7 6 5 5 5 5 6 6 6 6 8 7 7 7 7 8 8 7 7 6 7 7 7 7 6 7 7 7 7 7 6 5 5 2 2 2 2 2 2 2 2 3 3 3 3 5 6 6 5 5 4 3 4 5 5 5 4 5 4 4 6 7 6 5 5 4 3 3 3 2 1 1 3 3 2 8 6 5
7 10 9 8 7 7 7 7 7 7 6 6 6 5 6 7 7 7 8 7 7 7 7 7 6 7 6 7 7 7 7 7 7 6 8 8 7 7 6 6 5 5 3 3 2 3 2 2 2 4 4 3 5 4 5 5 5 5 5 4 3 4 3 4 4 4 4 5 6 6 7 6 6 5 4 3 2 2 1 2 3 3 4 3 6
7 9 8 8 7 7 7 7 6 6 6 6 7 5 5 6 7 7 8 7 7 7 7 7 6 6 7 6 6 6 6 6 6 7 7 7 6 7 7 6 6 6 5 6 5 4 3 4 3 4 4 4 4 5 5 6 5 6 6 5 3 3 2 4 5 5 5 5 5 6 6 6 6 6 6 5 3 2 1 2 3 5 3 2 6
9 7 9 8 7 5 6 6 7 5 6 5 6 6 5 5 6 7 7 7 6 6 6 7 6 6 5 6 5 5 6 5 5 5 6 6 6 6 6 5 6 6 6 5 6 7 5 5 4 5 5 5 4 4 4 5 6 6 7 6 6 4 3 4 4 5 6 7 5 6 6 5 7 7 5 4 3 1 2 2 2 3 2 2 4
7 8 8 8 7 6 6 5 5 5 5 5 4 5 6 6 6 7 7 7 7 7 6 6 7 6 5 6 5 5 5 5 4 4 4 5 6 6 5 5 5 5 6 5 6 5 6 6 6 6 5 5 5 4 4 4 5 5 5 5 6 5 5 5 5 4 5 8 9 7 7 6 6 6 6 6 4 3 3 3 3 3 3 3 2
9 7 7 7 8 4 3 4 4 5 6 5 7 5 5 6 7 7 7 7 6 7 7 6 6 5 4 5 5 5 5 5 5 5 4 3 5 6 5 4 5 5 6 6 5 5 5 6 6 7 6 6 6 6 5 4 4 4 5 5 7 5 5 6 6 4 7 8 7 9 8 8 7 6 5 6 5 4 3 3 1 1 1 2 3
5 4 8 4 10 6 6 5 4 4 5 6 6 5 6 6 7 6 6 6 7 6 7 6 6 5 6 5 6 6 6 6 6 6 5 5 5 5 5 6 5 5 6 6 6 6 6 5 5 5 5 5 5 6 7 6 4 5 5 6 7 7 6 6 5 6 7 5 6 9 9 8 7 7 5 6 4 5 5 3 2 3 2 2 1
3 3 8 9 6 8 6 5 3 1 2 6 5 3 5 3 6 7 7 6 7 6 6 5 5 5 5 6 6 7 7 7 7 6 5 6 6 6 5 5 6 5 5 5 5 7 6 8 7 5 4 6 5 5 7 8 6 5 6 6 7 7 7 7 7 6 8 6 7 7 6 9 7 7 7 5 5 3 3 4 3 3 3 3 1
5 7 8 9 5 4 6 5 4 2 6 5 8 4 6 4 7 6 6 5 5 5 6 4 6 5 6 7 7 7 6 6 6 6 7 7 8 7 7 6 6 7 7 5 4 5 6 6 7 9 8 7 5 5 6 6 4 9 9 7 7 7 6 6 7 7 10 8 7 9 8 8 9 7 8 5 5 4 4 3 4 3 3 2 4
2 2 3 5 8 4 3 3 7 7 8 7 8 8 4 4 5 5 3 5 5 5 5 6 6 8 9 7 7 7 7 7 6 7 7 8 8 7 8 8 7 7 7 7 4 6 5 4 6 8 10 9 6 6 7 4 2 6 7 6 8 8 8 9 8 7 6 7 9 8 8 8 6 6 7 6 5 4 3 5 5 4 3 2 1
5 7 6 4 5 4 6 5 4 1 4 3 5 5 4 3 3 3 4 4 7 7 5 2 6 7 10 9 8 7 7 7 7 6 6 7 8 7 4 5 7 7 8 7 6 9 6 3 6 7 9 10 8 6 6 4 5 4 5 7 8 8 7 8 9 9 8 9 10 9 8 7 6 10 10 6 5 5 5 5 5 4 5 3 3
4 3 4 5 5 6 6 8 3 6 5 6 6 4 6 4 2 3 3 7 8 7 9 8 8 8 9 9 8 7 7 6 5 5 5 6 8 8 4 5 6 8 7 9 10 8 8 8 8 8 8 9 11 9 8 4 4 4 7 7 7 6 7 7 7 10 10 7 9 8 8 7 7 7 10 9 6 6 6 5 5 5 5 6 6
4 3 3 4 4 2 6 9 4 4 3 8 3 4 5 2 3 3 7 8 8 5 6 9 10 9 9 9 8 8 8 7 7 5 6 6 5 7 8 6 6 6 7 7 8 9 10 11 10 9 8 7 9 11 9 6 6 7 6 7 6 5 5 8 7 7 9 8 9 7 9 8 7 5 6 9 8 7 7 6 6 5 4 6 5
0 2 2 2 3 3 5 7 4 8 5 3 1 4 6 5 3 5 6 5 6 7 7 7 6 8 8 9 9 9 8 9 10 6 7 7 7 7 7 8 9 7 8 7 9 10 10 10 11 10 11 9 8 8 10 9 8 5 6 5 10 7 6 6 6 7 7 7 8 9 8 8 6 4 7 7 9 8 6 5 6 5 5 5 4
1 2 2 2 2 5 6 8 5 5 7 6 7 7 7 3 4 4 4 4 4 5 6 6 6 7 8 9 9 8 8 7 8 6 6 6 6 6 6 8 9 9 8 7 8 8 8 8 8 10 12 13 9 8 10 10 11 10 11 9 10 9 7 7 7 6 7 8 8 9 10 6 8 8 7 9 8 7 6 5 4 3 5 3 3
2 2 2 2 2 4 5 5 5 5 6 6 6 7 7 4 4 4 4 4 5 5 6 7 7 7 7 8 7 5 7 8 7 6 6 6 5 5 7 7 8 9 9 8 9 8 6 9 11 11 10 12 11 9 7 6 6 6 7 7 9 10 9 8 6 8 8 7 8 9 9 7 8 10 7 9 4 4 9 5 3 4 3 3 3
4 3 2 1 3 3 4 5 3 3 3 4 5 7 7 4 4 4 5 4 4 4 6 6 5 6 6 8 8 5 6 7 6 7 8 8 8 7 9 10 8 9 10 10 9 10 10 10 10 10 11 11 11 8 4 5 4 5 5 7 7 8 8 7 6 6 7 7 8 8 9 8 10 9 10 9 8 9 9 3 4 7 4 4 4
3 5 6 4 3 4 4 4 2 1 1 3 4 5 6 5 4 4 6 4 5 7 7 8 6 5 6 8 6 4 6 7 7 7 7 7 9 10 8 8 9 10 10 10 11 11 10 10 10 10 10 9 8 8 6 6 4 5 5 6 7 8 8 8 8 7 6 7 7 8 6 6 7 7 5 3 6 9 6 8 7 6 5 2 6
6 5 4 3 4 3 2 3 1 1 2 2 5 5 4 4 5 5 5 6 6 5 6 6 7 8 7 7 6 5 5 7 8 7 7 8 9 8 8 10 9 9 8 9 10 11 12 12 12 11 12 11 9 5 2 4 5 5 6 7 7 8 8 8 8 8 6 5 6 6 6 5 7 9 11 6 5 6 6 6 5 5 3 4 3
7 7 5 3 3 2 3 3 2 3 2 4 2 4 5 4 4 6 7 7 7 4 4 6 7 7 7 9 8 7 8 7 7 8 8 8 9 8 9 9 9 9 9 9 9 10 11 11 12 12 10 9 8 2 4 5 4 4 6 6 7 7 8 8 8 9 7 3 2 2 3 9 10 12 10 7 6 5 5 7 5 2 1 5 4
6 3 2 2 2 3 3 2 1 2 2 1 2 3 5 3 5 6 6 7 8 7 7 6 8 8 9 8 8 9 9 9 7 8 8 10 10 8 8 8 8 9 9 9 9 10 10 10 12 11 10 8 8 3 5 5 5 6 5 6 7 8 8 8 8 8 8 6 4 2 1 4 2 3 4 6 7 7 8 11 11 9 6 3 2
5 7 6 3 4 3 7 6 2 2 4 2 2 5 7 6 5 6 7 7 7 7 7 7 7 8 9 9 8 9 9 8 9 10 10 10 10 10 10 9 9 9 9 9 9 10 10 10 9 10 9 8 7 2 3 4 5 5 4 5 6 7 7 7 7 8 7 7 5 4 3 2 2 0 4 5 6 8 8 8 10 11 10 10 8
5 7 8 6 7 8 10 10 11 10 8 8 8 5 2 4 5 5 7 7 8 9 10 10 9 9 10 8 9 9 9 8 8 9 9 9 10 11 11 11 11 9 8 10 10 10 10 10 9 10 10 8 8 4 4 4 6 6 4 5 5 6 7 7 7 8 8 7 7 5 6 5 3 3 1 2 4 5 6 8 8 9 9 9 9
3 4 6 7 4 4 3 4 3 3 7 7 6 6 3 3 4 5 6 8 9 9 8 10 10 10 10 10 9 10 10 10 9 8 8 9 9 9 9 9 9 9 9 10 10 10 10 9 10 10 9 7 8 3 4 4 5 6 7 6 7 6 7 6 7 7 7 7 6 6 5 5 6 5 3 3 3 4 4 4 3 3 5 7 7
4 3 5 4 3 3 5 7 8 8 3 3 4 5 4 5 5 7 7 8 8 10 9 8 9 9 9 9 10 9 9 9 9 9 9 9 9 8 10 9 8 9 9 10 10 10 10 8 9 10 10 9 7 2 1 2 6 7 11 9 6 7 7 7 6 7 6 5 6 7 7 6 6 7 6 4 4 5 4 3 3 3 3 2 3
8 5 3 5 9 7 5 4 2 4 6 6 6 6 5 5 7 8 7 9 10 8 9 8 8 9 9 8 9 9 8 8 8 8 9 9 10 10 10 9 8 8 8 8 9 10 9 9 9 10 10 9 10 9 9 9 8 9 11 7 8 8 8 8 8 6 5 5 6 7 7 7 7 6 9 12 10 5 5 5 5 4 3 2 1
4 2 3 3 2 2 4 3 3 5 6 5 5 6 6 5 6 8 9 8 8 9 9 9 9 8 8 9 8 9 9 9 9 9 10 9 9 10 9 8 9 9 9 9 9 9 9 9 10 10 10 9 8 7 6 4 4 8 7 7 7 7 7 8 8 7 7 5 4 6 7 8 8 9 10 13 14 13 8 8 6 5 4 5 5
8 5 2 2 4 3 1 2 3 3 2 1 2 2 4 5 6 6 7 9 9 10 10 9 9 9 8 8 8 8 8 8 8 9 9 8 8 7 8 8 9 9 9 9 8 9 9 10 10 10 9 9 7 3 1 1 6 9 7 7 6 7 8 8 8 6 6 7 7 10 7 6 8 9 11 16 16 13 9 9 8 8 8 8 6
11 15 16 11 7 6 5 4 1 3 4 2 1 3 6 6 5 6 8 8 7 8 9 9 8 7 7 6 5 7 8 8 10 9 8 8 8 7 7 6 8 9 9 8 8 9 9 9 9 8 11 8 2 2 4 7 7 7 7 5 6 6 7 8 9 8 8 6 5 4 6 6 5 8 12 15 17 16 11 11 11 10 10 9 8
8 11 10 10 8 8 8 6 6 3 2 2 2 5 4 5 6 5 6 6 6 6 7 9 9 7 5 6 5 5 5 6 9 9 8 8 8 7 6 6 7 8 9 8 8 8 9 8 8 8 6 4 4 6 2 4 6 7 6 5 6 7 7 9 9 9 9 7 5 6 5 5 9 7 6 10 15 17 10 9 9 10 10 10 8
6 6 7 6 7 7 8 7 5 4 5 4 4 3 4 6 4 4 6 6 5 6 6 6 7 7 8 7 6 5 5 5 7 7 7 8 8 8 8 7 6 6 7 8 8 8 7 7 8 7 5 6 5 1 2 4 8 7 6 4 5 6 7 7 8 9 8 8 8 7 4 5 6 6 5 5 10 13 14 10 11 10 8 8 9
5 6 3 1 3 4 6 7 5 5 6 5 5 5 5 7 6 6 5 5 6 7 5 5 6 8 7 6 5 3 3 5 6 6 6 7 7 8 8 8 7 6 6 7 7 7 6 6 7 7 5 4 3 1 1 5 5 6 6 4 4 5 5 6 7 8 7 8 8 8 8 6 5 4 4 4 5 7 9 6 5 10 13 13 7
3 3 4 3 3 4 6 6 6 5 5 5 4 5 6 5 5 5 4 5 5 3 6 6 6 5 4 5 5 4 4 4 6 7 8 8 8 8 7 9 8 6 6 6 8 7 5 7 8 7 4 5 1 1 1 3 3 5 8 7 7 6 8 5 6 7 7 7 6 7 8 9 5 4 3 3 5 7 4 5 11 12 12 13 8
2 2 2 4 3 3 3 4 6 5 4 4 4 5 5 3 5 5 5 5 5 5 6 5 3 4 3 3 5 5 5 5 6 6 7 9 9 7 6 7 7 5 4 5 6 7 7 8 9 9 7 5 4 1 1 4 3 7 9 8 10 10 6 5 5 6 6 6 6 6 7 10 6 4 3 3 4 5 0 8 10 11 11 8 6
2 3 2 2 4 2 3 4 4 5 5 5 4 5 4 5 5 6 7 7 6 6 5 4 5 5 2 2 3 4 5 6 7 7 8 7 8 7 7 6 6 7 5 2 3 5 6 7 8 9 9 7 6 3 0 2 4 9 10 11 12 11 9 5 5 6 6 6 6 8 8 6 5 3 2 1 0 1 5 4 8 10 8 5 5
3 3 2 2 3 2 3 4 5 4 5 4 4 4 6 5 5 6 6 8 5 4 5 5 6 4 3 4 4 5 7 7 6 5 7 8 9 9 7 4 6 7 6 3 4 5 5 7 8 8 8 8 6 5 4 4 5 7 8 10 12 11 10 10 9 7 9 11 10 8 7 4 3 2 0 1 1 2 5 5 5 4 3 5 5
2 1 1 3 3 2 4 5 6 4 4 4 4 4 4 4 5 4 5 6 6 6 7 6 6 5 3 3 5 5 5 6 6 6 7 8 9 8 7 4 6 7 5 6 4 5 5 7 7 7 8 8 7 7 3 4 5 5 6 7 7 8 9 9 8 8 10 9 8 5 3 2 3 2 1 0 2 5 5 3 2 1 2 2 3
2 2 2 1 2 3 4 4 5 5 6 6 5 4 5 6 8 7 6 6 7 6 6 7 7 6 5 5 6 7 8 7 7 7 6 6 7 9 9 6 5 5 6 6 6 5 5 5 6 6 7 7 7 7 3 4 5 5 5 5 6 6 6 6 6 7 8 9 9 3 3 1 0 1 2 2 2 2 0 2 3 2 1 1 3
2 1 1 3 2 2 4 5 5 4 4 4 5 5 6 8 7 7 6 6 6 7 6 6 7 6 6 5 4 5 7 8 8 7 5 5 6 7 9 8 7 4 1 4 7 5 4 4 6 7 6 6 7 6 2 1 2 2 4 5 5 5 5 5 6 9 8 8 7 5 3 3 2 3 2 2 3 3 3 2 3 3 4 3 3
1 2 4 4 3 3 5 6 6 4 4 5 5 6 6 6 7 5 5 5 6 5 6 7 7 6 4 3 4 5 7 7 7 8 9 5 6 4 7 11 9 6 4 6 7 5 6 5 6 7 5 6 6 3 3 1 2 5 7 8 10 11 9 7 10 14 8 6 7 6 3 3 3 3 3 3 3 4 4 5 5 4 4 4 4
3 3 4 4 4 5 5 5 4 3 4 4 4 6 7 7 7 6 4 4 5 5 5 6 5 4 4 4 4 4 3 7 7 7 7 6 4 5 10 17 16 10 5 5 8 11 13 12 10 8 9 8 1 4 3 1 5 8 9 11 13 13 10 8 7 6 5 5 5 4 4 2 3 3 2 2 3 3 3 4 5 5 4 5 4
Wind_Direction
57 68 88 89 71 64 69 58 51 43 32 32 34 37 29 26 17 34 24 22 34 27 22 21 19 10 4 12 6 358 330 317 82 356 344 185 244 325 5 357 16 351 352 350 6 342 337 312 351 327 331 316 348 312 305 300 304 278 282 279 278 288 277 280 254 301 307 299 262 235 247 252 216 203 225 210 202 190 173 190 202 198 206 189 159
68 56 53 55 73 69 51 37 48 42 27 23 26 35 28 28 27 27 29 25 33 35 26 26 33 28 348 3 355 342 343 19 0 18 344 340 19 41 25 27 18 8 359 348 346 337 325 317 308 320 310 298 315 315 307 308 293 278 271 293 259 261 269 236 276 349 257 242 277 280 227 228 226 214 229 204 218 194 180 194 205 223 219 164 154
86 73 61 56 64 67 64 42 39 45 31 25 19 27 30 24 27 32 32 28 23 17 22 23 23 32 24 8 7 347 332 353 352 323 6 1 15 21 36 20 34 25 66 44 339 359 343 342 336 317 312 301 300 293 274 280 297 309 310 293 305 301 277 228 209 188 303 322 284 257 246 221 214 237 241 219 210 194 177 199 197 204 215 205 146
88 86 83 64 55 55 61 71 52 44 42 34 22 22 26 26 28 25 34 28 21 8 20 14 16 42 16 8 16 200 288 331 6 36 20 3 18 9 37 38 21 333 350 359 73 93 82 352 330 332 326 325 316 302 297 272 261 281 287 285 288 288 280 280 172 174 211 4 300 305 306 348 301 223 208 235 247 202 192 210 193 206 209 148 88
101 93 80 78 67 56 55 52 69 62 49 38 30 26 31 30 30 27 35 27 18 22 14 8 11 6 8 17 9 10 64 8 18 16 15 358 3 11 352 13 26 345 321 346 78 165 134 152 234 294 318 322 321 312 308 305 273 240 271 296 292 290 305 316 318 195 183 166 233 311 294 230 235 27 325 210 206 221 201 220 193 218 193 206 198
92 85 85 81 75 67 59 64 60 58 61 52 40 34 31 36 30 31 33 27 26 20 14 14 20 14 14 9 3 4 6 4 7 5 355 359 352 319 336 3 40 5 303 308 354 3 337 71 40 326 293 272 251 278 292 306 311 307 282 261 250 254 257 299 285 303 243 195 211 234 227 272 320 335 353 304 207 205 211 192 198 222 195 222 205
85 73 72 68 71 74 66 60 54 57 57 57 53 48 44 40 43 39 31 35 27 24 25 16 24 21 21 23 9 2 360 357 355 9 350 340 320 335 340 347 2 17 336 341 1 297 281 294 234 247 288 303 289 242 238 268 293 300 296 277 282 307 288 267 283 289 298 209 214 220 230 231 242 271 260 349 314 17 210 335 289 257 104 151 93
89 79 79 68 66 71 74 67 63 57 52 54 57 52 46 48 49 48 44 42 34 26 32 30 20 21 20 17 13 9 3 353 347 351 347 337 336 341 350 349 355 21 2 355 330 327 330 317 344 338 311 318 322 312 289 269 298 306 315 314 315 322 322 315 313 308 305 298 265 224 232 240 237 234 239 225 254 298 298 206 234 191 157 135 81
80 86 70 64 63 57 59 67 59 58 50 44 50 50 45 47 51 43 50 44 34 34 31 34 34 24 20 14 9 10 1 1 347 350 346 358 328 336 3 347 348 349 353 28 348 337 335 330 338 302 300 321 312 304 326 334 320 299 304 309 308 302 286 275 287 290 300 290 298 237 233 263 280 249 228 219 216 232 252 246 203 114 86 111 114
119 95 83 70 61 67 56 62 65 56 50 53 40 47 42 35 49 43 39 37 35 33 31 30 29 30 24 17 12 7 1 360 354 350 350 349 354 360 6 358 348 331 343 355 21 308 306 296 306 322 326 318 312 308 300 296 281 245 271 271 269 274 272 278 271 287 294 296 296 301 300 266 254 280 289 229 212 211 240 273 271 157 158 163 143
90 81 72 69 57 58 65 58 56 50 50 48 46 45 44 36 38 48 38 36 34 38 31 35 31 26 24 16 18 8 7 2 355 355 356 356 359 350 354 343 332 334 328 339 326 313 278 290 289 286 290 305 306 305 305 312 309 298 275 285 279 262 261 270 268 257 270 287 293 294 285 269 254 262 258 282 284 276 251 254 269 289 172 170 162
92 91 76 62 59 47 52 64 50 40 38 44 39 45 49 37 29 45 37 36 30 33 33 32 32 30 19 21 13 7 7 1 358 360 359 354 353 345 347 342 347 345 354 346 327 337 320 289 314 308 299 290 284 279 285 283 283 279 290 288 289 295 300 286 281 265 259 266 279 287 287 289 294 293 286 294 321 301 348 310 300 301 305 121 168
87 81 88 69 49 36 30 45 59 41 35 40 36 33 46 45 31 32 40 34 31 27 30 25 26 27 19 19 11 2 7 3 354 2 358 349 350 344 349 347 345 340 348 337 346 337 337 324 313 293 283 277 282 288 289 292 301 319 310 294 281 276 281 293 289 288 274 259 268 278 276 284 277 271 279 285 306 339 351 335 296 310 325 1 143
97 69 54 54 61 58 40 24 38 49 35 31 46 21 17 51 34 28 36 30 33 24 24 25 17 18 20 10 14 3 358 2 349 359 354 347 341 342 342 345 342 342 343 343 336 332 331 326 313 311 303 294 281 272 283 299 300 292 286 296 299 291 288 276 280 291 298 288 265 276 278 262 272 288 292 283 250 244 276 225 262 291 281 266 155
61 71 66 59 51 33 67 28 11 62 51 26 48 37 9 28 23 37 21 28 27 19 17 21 12 8 11 4 5 356 353 341 346 346 343 347 336 336 338 338 341 341 338 338 323 331 329 325 323 310 306 304 307 295 284 284 285 279 287 300 286 270 260 265 269 281 285 294 298 277 278 280 259 264 278 282 282 240 210 224 222 247 272 251 234
43 66 62 73 79 32 88 72 22 5 72 39 24 46 16 19 21 29 20 19 19 12 19 357 10 359 340 11 353 349 349 329 338 331 341 350 333 331 329 335 342 339 335 329 326 324 324 314 315 315 317 313 303 297 285 276 263 262 265 267 278 275 264 259 261 249 251 250 262 280 270 265 273 255 260 260 258 279 268 258 221 238 236 277 206
10 10 107 96 77 42 30 88 73 9 33 56 27 26 35 358 27 17 15 20 13 6 22 336 3 353 341 7 353 343 348 341 340 332 345 352 334 326 330 337 345 344 333 329 327 327 319 310 300 304 304 305 299 300 292 273 264 251 251 258 264 271 269 265 273 268 262 253 238 259 269 262 261 274 245 254 238 235 269 276 226 205 205 216 260
319 7 57 86 70 68 28 7 78 104 73 65 33 10 31 6 33 9 9 8 20 0 6 333 352 351 343 0 348 350 343 343 335 333 354 348 335 324 329 334 342 329 327 314 326 323 321 317 310 305 304 296 293 273 278 279 261 257 256 248 248 248 253 251 246 249 266 242 250 249 250 272 264 262 264 238 255 236 225 253 252 233 199 213 230
327 58 71 79 82 94 78 329 305 19 96 28 48 346 50 21 30 8 12 341 20 5 341 337 358 352 356 345 346 346 340 339 331 348 356 340 331 335 338 342 331 331 316 310 317 318 314 324 335 330 314 298 296 294 278 280 7 321 303 291 274 261 252 259 261 234 241 245 229 241 244 246 254 250 262 240 239 242 219 231 266 227 244 194 209
318 75 32 50 73 348 72 360 332 12 24 18 51 342 44 38 43 351 2 332 14 10 335 1 4 357 348 344 346 341 340 329 348 354 340 332 334 338 338 332 328 315 305 308 316 306 302 334 332 315 313 310 306 307 297 284 223 218 248 266 269 263 268 267 255 240 238 242 261 251 243 240 254 292 264 244 229 233 216 224 234 230 209 193 140
20 16 350 31 92 60 343 244 334 74 44 82 61 341 326 39 26 346 321 356 359 346 336 0 17 5 346 346 338 340 333 348 347 347 339 337 328 316 314 325 318 314 312 311 318 304 304 325 325 323 318 314 311 310 308 298 267 254 256 260 259 270 276 275 269 260 253 234 231 235 242 237 213 234 253 238 233 227 229 224 247 218 191 188 164
86 352 10 18 8 26 3 322 72 305 68 28 61 321 329 11 11 306 6 20 359 328 353 7 18 6 341 340 339 333 341 332 346 344 349 328 310 305 322 333 319 311 319 328 320 325 334 339 335 319 316 319 319 314 311 311 297 253 249 255 273 269 266 270 278 284 275 262 257 249 269 282 271 238 262 248 222 228 225 215 224 236 189 186 170
20 79 16 19 42 43 317 330 331 340 58 90 40 330 313 5 355 12 25 6 334 335 25 3 359 353 341 339 341 337 334 334 347 337 314 303 310 337 334 326 318 326 323 319 339 339 338 336 327 317 313 316 317 320 319 312 280 284 302 302 277 266 271 282 279 264 262 261 253 232 238 247 265 273 264 271 257 224 226 218 211 225 214 183 176
109 71 78 9 286 215 229 240 306 347 14 90 66 6 343 358 20 44 15 341 322 352 10 12 355 343 344 344 343 335 336 351 332 326 327 344 346 332 328 332 330 321 331 344 336 333 334 327 315 316 317 311 312 317 317 319 317 305 285 312 296 293 294 292 293 296 278 270 273 265 242 233 236 256 265 249 263 271 225 229 220 203 222 188 181
91 238 171 205 296 316 313 328 355 338 5 11 10 354 332 327 50 31 351 328 349 6 356 357 358 356 353 346 333 338 333 328 312 325 329 336 334 332 333 335 324 325 332 329 327 320 310 308 316 327 322 316 321 328 323 345 354 352 353 335 310 299 293 287 285 279 281 279 272 265 258 236 228 242 257 276 238 265 280 242 243 218 196 203 167
216 245 222 194 270 310 311 335 346 355 357 360 351 338 309 343 33 19 337 354 359 3 1 358 6 357 350 329 317 317 317 311 317 324 327 326 322 328 330 315 322 326 327 323 312 307 315 337 332 325 322 318 323 323 345 12 348 345 335 322 312 310 299 287 283 280 276 271 266 260 246 223 220 227 232 247 243 231 267 257 244 266 205 168 139
280 304 334 258 174 212 285 296 340 345 346 347 325 307 315 8 6 4 339 344 1 10 356 357 351 337 332 314 306 323 331 331 334 340 338 336 339 335 328 331 336 336 326 323 333 341 341 339 327 324 323 315 310 314 24 359 351 329 316 310 301 291 284 289 291 282 276 274 269 264 259 236 228 225 225 236 216 206 229 267 330 294 249 159 147
234 207 213 210 197 205 217 251 233 356 14 288 319 330 340 348 348 344 347 352 18 4 355 338 339 331 325 318 319 352 351 337 339 340 340 338 339 334 339 340 338 329 322 335 343 339 334 328 323 316 314 312 320 348 26 357 328 321 316 317 318 314 312 306 296 288 287 293 291 276 254 235 229 230 230 268 242 201 199 196 196 264 287 157 149
271 276 260 213 208 195 204 239 215 158 210 291 312 324 307 333 339 334 351 347 1 351 340 331 339 334 329 324 334 359 359 343 335 336 343 342 333 333 341 337 327 323 336 343 341 336 332 325 328 332 329 332 334 5 21 328 328 325 325 319 319 315 312 308 303 298 293 294 281 259 248 232 224 226 224 211 238 226 198 172 201 253 233 58 64
257 247 243 245 261 227 214 200 190 265 283 298 288 293 320 328 331 360 348 347 327 324 331 336 334 335 334 339 347 356 349 334 329 347 339 335 331 333 334 325 330 341 339 337 336 331 322 322 325 323 322 322 328 330 348 345 333 330 315 312 315 314 312 309 306 303 299 286 290 285 277 250 219 223 207 147 147 151 135 146 152 120 85 133 161
270 290 284 278 233 238 212 204 186 247 265 241 280 299 292 327 33 5 336 318 326 335 336 345 336 342 340 345 1 348 332 331 353 339 338 333 334 334 330 330 343 340 334 335 331 321 327 329 321 319 319 320 324 6 354 313 330 344 319 314 315 312 307 304 305 306 304 296 258 262 307 349 309 183 115 125 116 116 118 109 91 78 59 68 99
308 305 304 325 328 9 18 357 4 294 286 350 43 356 359 2 11 348 325 322 332 331 336 337 347 343 343 347 352 337 333 349 347 341 338 343 340 337 333 338 339 333 333 328 324 327 322 317 313 312 315 315 316 113 309 295 316 308 301 309 306 304 307 306 306 304 299 295 265 237 247 249 288 266 142 110 105 104 97 93 104 99 83 69 68
313 328 336 350 20 25 48 33 20 13 1 11 355 343 23 357 355 333 318 331 340 338 340 340 347 349 347 348 340 334 335 339 348 0 358 347 342 335 342 340 333 331 328 330 323 317 315 314 313 313 309 311 319 200 280 290 289 295 310 306 295 300 298 301 300 300 297 295 284 241 231 234 216 261 217 153 134 117 107 111 104 110 110 106 93
353 346 336 352 14 58 52 20 338 332 18 27 347 336 3 21 329 322 337 330 326 332 344 345 348 350 348 334 344 346 344 345 346 346 343 338 330 333 333 329 326 326 327 320 317 313 310 310 311 310 311 316 319 274 234 271 307 332 324 311 288 287 283 279 286 287 290 286 282 262 237 217 230 223 208 189 157 132 136 124 126 118 119 118 123
335 24 49 33 7 339 46 35 11 4 0 334 321 304 1 344 333 333 327 321 340 343 344 349 351 351 343 342 343 346 341 345 346 348 346 336 335 333 330 325 324 323 321 318 316 313 310 312 319 323 325 321 319 340 269 22 10 352 337 317 292 305 304 288 268 265 264 265 254 250 241 225 213 220 215 195 174 166 158 154 137 139 117 126 137
343 358 17 65 44 28 28 8 18 334 332 338 351 348 338 346 337 315 324 338 341 348 344 351 348 342 338 338 338 342 340 338 338 338 334 337 340 333 325 323 322 317 313 314 313 310 314 321 323 324 320 324 331 36 48 32 2 351 335 318 322 312 303 301 298 275 257 241 244 243 248 239 229 222 215 202 212 177 183 179 180 176 171 195 187
244 329 7 95 120 30 58 18 351 1 351 352 357 342 335 339 314 313 335 331 339 341 344 343 344 341 341 344 351 348 350 352 351 342 339 338 330 325 323 323 317 313 312 312 312 310 318 323 322 320 322 324 342 68 59 46 6 347 340 327 318 311 303 306 304 315 318 289 249 244 252 253 241 230 218 202 198 182 185 188 191 188 192 206 224
354 28 344 33 87 86 87 113 358 318 259 282 326 341 318 300 303 328 328 329 340 341 343 348 353 350 342 343 343 345 341 339 334 332 332 325 321 319 318 319 315 316 309 307 311 319 324 322 315 318 326 329 9 66 27 355 9 3 341 332 319 316 314 308 314 332 327 307 285 300 286 261 257 251 226 198 200 194 199 194 189 187 187 195 202
16 35 15 9 24 31 356 327 225 284 330 14 341 295 282 302 320 323 328 334 346 345 342 346 347 343 338 329 338 345 345 342 337 331 324 317 314 311 302 310 311 306 304 310 324 318 316 315 310 318 330 358 330 269 52 14 353 344 343 336 329 325 324 327 326 322 315 294 288 283 284 281 275 273 248 202 197 196 201 193 189 184 187 192 192
6 41 21 354 349 332 323 350 340 349 349 305 292 291 323 318 305 339 340 329 339 341 347 342 337 332 322 329 340 349 348 342 329 320 314 312 307 301 311 308 299 307 311 316 310 304 307 312 314 322 343 333 334 20 28 294 327 329 2 330 333 340 344 335 328 322 314 313 326 323 303 285 284 299 300 225 207 208 203 193 186 193 186 189 172
7 53 11 356 354 344 326 323 324 343 332 336 326 323 303 301 311 323 310 323 335 332 341 340 325 324 333 341 333 328 328 321 307 300 305 304 311 312 309 296 295 301 303 304 306 304 308 318 319 321 334 329 42 97 257 291 303 330 346 351 326 342 337 328 325 320 320 323 330 326 327 314 303 297 283 242 226 214 213 201 191 197 192 154 140
36 130 192 239 325 324 323 334 336 336 319 310 304 302 306 306 314 305 306 334 327 337 331 314 312 332 344 332 320 318 316 300 292 298 301 303 306 306 299 305 301 292 293 300 307 306 314 327 317 320 340 358 96 45 143 278 287 317 327 325 317 327 333 318 313 324 323 323 323 332 326 329 319 292 277 254 231 236 247 266 153 121 113 118 119
326 306 348 17 341 348 341 335 331 322 321 303 299 295 295 287 291 305 318 318 319 292 293 295 304 321 316 322 318 311 286 282 283 291 298 296 294 289 296 300 297 298 306 318 317 316 337 332 322 317 332 338 16 189 140 312 348 334 330 307 290 288 316 293 306 319 320 313 324 344 347 354 328 304 276 237 202 197 193 125 127 116 111 110 111
325 324 14 36 314 302 318 336 310 308 298 304 294 290 281 293 304 311 303 286 276 287 284 290 289 279 296 304 302 305 297 278 282 292 291 287 282 282 288 289 286 292 306 321 321 333 340 335 329 322 328 336 342 69 335 315 329 341 349 343 334 325 287 280 299 293 309 320 327 334 328 326 318 294 276 232 224 219 126 137 116 116 112 108 107
310 306 3 267 272 287 287 280 283 295 298 291 296 288 299 294 290 287 281 277 263 253 256 265 277 284 269 282 290 289 293 290 285 283 277 281 287 286 282 281 293 297 292 300 324 325 335 333 324 319 321 324 334 332 166 281 18 7 346 347 341 348 341 287 284 296 323 321 314 308 331 2 341 334 353 2 36 64 51 113 127 127 121 108 106
224 232 243 320 318 275 260 271 276 276 284 285 278 270 266 261 265 267 268 278 273 247 245 253 269 268 259 271 285 285 277 268 267 281 290 291 285 283 278 287 298 289 294 318 313 313 331 322 316 315 312 318 324 328 335 3 4 352 343 339 336 342 348 333 306 279 286 305 305 301 304 336 84 103 159 196 194 142 88 75 79 86 99 125 129
312 11 77 242 233 297 303 296 286 282 277 281 270 258 262 270 267 269 279 278 275 272 275 272 255 250 241 244 265 265 272 279 267 248 250 263 272 276 282 292 291 297 329 326 321 330 324 319 317 314 312 317 321 317 3 13 356 343 337 333 334 338 342 343 344 344 342 331 315 300 328 357 60 120 177 279 99 113 113 108 88 39 62 105 137
209 209 201 228 264 273 267 274 300 313 314 312 313 316 322 305 286 271 258 259 265 259 253 260 273 269 246 244 246 259 260 266 263 258 261 267 281 298 300 289 284 309 322 325 328 314 312 315 315 315 311 312 313 316 17 5 345 336 322 326 328 329 338 339 332 335 324 316 306 267 253 252 344 131 148 169 149 153 122 122 132 136 107 95 135
9 14 341 288 341 305 301 304 286 280 285 291 293 292 279 272 258 245 246 256 262 261 249 251 258 258 244 226 237 269 279 271 271 281 295 293 277 275 291 297 298 309 22 305 297 280 265 294 306 297 298 297 302 315 0 18 332 310 287 312 323 317 325 314 313 319 316 309 297 270 279 291 276 275 242 210 196 177 164 169 162 167 162 141 152
21 21 345 331 310 294 274 267 266 247 242 253 258 259 262 266 273 269 270 266 263 251 239 251 259 263 267 271 281 287 303 313 315 324 302 280 279 309 303 292 279 263 214 238 245 251 268 281 291 287 287 289 297 321 140 154 297 309 293 275 271 276 275 277 295 304 294 288 282 289 264 257 256 250 247 232 225 204 191 177 175 165 164 163 159
29 312 284 296 305 279 267 276 299 321 302 293 297 305 299 295 293 282 264 264 273 271 276 277 275 283 298 304 310 327 289 292 316 311 292 329 328 333 294 273 258 261 267 240 252 250 255 258 252 268 277 280 198 164 168 343 335 320 309 301 295 289 290 283 287 324 317 294 293 300 300 287 257 264 254 224 204 207 185 182 183 177 162 158 153